Location: Schommer Observatory
(40.5200°N, 74.4500°W)
Time: 16:43:32
(UTC-04:00)

Envisat - Visible Passes

Search period start: 22 June 2017 00:00
Search period end: 02 July 2017 00:00
Orbit: 764 x 766 km, 98.2° (Epoch: 21 June)

Date Brightness Start Highest point End Pass type
(mag) Time Alt. Az. Time Alt. Az. Time Alt. Az.
22 Jun 5.5 22:21:09 10° WSW 22:23:51 14° W 22:26:34 10° WNW visible
23 Jun 4.6 21:42:19 10° SSW 21:46:50 32° W 21:51:22 10° NNW visible
24 Jun 3.3 21:04:56 10° S 21:09:59 73° WSW 21:15:06 10° NNW visible
25 Jun 5.4 22:09:12 10° SW 22:12:39 18° W 22:16:08 10° NW visible
26 Jun 4.2 21:30:56 10° SSW 21:35:41 41° W 21:40:29 10° NNW visible
28 Jun 5.1 21:57:29 10° SW 22:01:28 23° W 22:05:30 10° NW visible
29 Jun 3.8 21:19:38 10° S 21:24:34 52° W 21:29:32 10° NNW visible
30 Jun 5.6 22:25:06 10° WSW 22:27:22 13° W 22:29:38 10° WNW visible
01 Jul 4.7 21:45:56 10° SSW 21:50:19 29° W 21:54:44 10° NW visible
